W9KOZ-5 Weather Reports


time (UTC)temp
C
wind
direction
speed
KPH
gust
KPH
rain 1hr
cm
rain 24hr
cm
rain mn
cm
humidity
%
barometer
mb
20260505165725 -2 194 0.0 0.0 0.00 0.00 0.00 93 1013.1
20260505165224 -2 194 0.0 16.1 0.00 0.00 0.00 93 1013.1
20260505165212 -2 194 0.0 16.1 0.00 0.00 0.00 93 1013.2
20260505164225 -2 193 4.8 17.7 0.00 0.00 0.00 93 1013.1
20260505163948 -2 193 11.3 17.7 0.00 0.00 0.00 93 1013.2
20260505163225 -2 193 12.9 17.7 0.00 0.00 0.00 93 1013.2
20260505162724 -2 194 12.9 20.9 0.00 0.00 0.00 93 1013.2
20260505162448 -2 194 12.9 20.9 0.00 0.00 0.00 93 1013.2
20260505161724 -2 193 14.5 22.5 0.00 0.00 0.00 93 1013.2
20260505161451 -2 194 12.9 22.5 0.00 0.00 0.00 93 1013.2
20260505160724 -1 193 12.9 17.7 0.00 0.00 0.00 94 1013.4
20260505160225 -1 193 12.9 17.7 0.00 0.00 0.00 94 1013.4
20260505152659 -1 194 12.9 20.9 0.00 0.00 0.00 94 1013.5
20260505152153 -1 194 12.9 20.9 0.00 0.00 0.00 94 1013.5
20260505151647 -1 194 12.9 19.3 0.00 0.00 0.00 94 1013.5
20260505151141 -1 194 14.5 20.9 0.00 0.00 0.00 94 1013.5
20260505150858 -1 194 14.5 20.9 0.00 0.00 0.00 94 1013.5
20260505150130 -1 194 14.5 22.5 0.00 0.00 0.00 94 1013.5
20260505140523 -1 195 14.5 22.5 0.00 0.00 0.00 94 1013.6
20260505124347 -1 185 16.1 24.1 0.00 0.00 0.00 94 1013.4
20260505123841 -1 186 17.7 35.4 0.00 0.00 0.00 94 1013.2
20260505123601 -1 210 19.3 35.4 0.00 0.00 0.00 94 1013.2
20260505122829 -1 210 17.7 29.0 0.00 0.00 0.00 94 1013.2
20260505122323 -1 216 17.7 25.7 0.00 0.00 0.00 94 1013.1
20260505121817 -1 212 17.7 27.4 0.00 0.00 0.00 93 1013.0
20260505121534 -1 189 17.7 27.4 0.00 0.00 0.00 93 1013.0
20260505120808 -1 208 16.1 25.7 0.00 0.00 0.00 93 1013.0
20260505120300 -1 212 17.7 25.7 0.00 0.00 0.00 93 1012.8
20260505115754 -1 211 17.7 25.7 0.00 0.00 0.00 93 1012.7
20260505115248 -1 194 17.7 24.1 0.00 0.00 0.00 93 1012.8
20260505114742 -1 241 19.3 30.6 0.00 0.00 0.00 93 1012.8
20260505114236 -1 221 20.9 30.6 0.00 0.00 0.00 93 1012.7
20260505113730 -1 253 24.1 33.8 0.00 0.00 0.00 93 1012.6
20260505113224 -1 215 25.7 33.8 0.00 0.00 0.00 93 1012.6
20260505112945 -1 218 24.1 33.8 0.00 0.00 0.00 93 1012.6
20260505112212 -1 189 24.1 32.2 0.00 0.00 0.00 93 1012.7
20260505111706 0 227 22.5 32.2 0.00 0.00 0.00 93 1012.6
20260505111200 0 205 20.9 32.2 0.00 0.00 0.00 93 1012.6
20260505110654 0 228 20.9 29.0 0.00 0.00 0.00 93 1012.7
20260505110148 0 216 20.9 27.4 0.00 0.00 0.00 93 1012.7
20260505102059 0 195 14.5 24.1 0.00 0.00 0.00 93 1013.1
20260505102039 0 222 16.1 24.1 0.00 0.00 0.00 93 1013.1
20260505101047 0 213 16.1 24.1 0.00 0.00 0.00 93 1013.1
20260505100542 0 223 16.1 24.1 0.00 0.00 0.00 93 1013.2
20260505100036 1 219 14.5 22.5 0.00 0.00 0.00 93 1013.2
20260505095752 1 208 14.5 25.7 0.00 0.00 0.00 93 1013.2
20260505095240 1 208 14.5 25.7 0.00 0.00 0.00 92 1013.4
20260505094517 0 213 14.5 24.1 0.00 0.00 0.00 92 1013.4
20260505094011 1 220 14.5 22.5 0.00 0.00 0.00 92 1013.4
20260505093958 1 211 14.5 19.3 0.00 0.00 0.00 91 1013.5
20260505093000 1 200 12.9 20.9 0.00 0.00 0.00 91 1013.5
20260505092454 1 208 11.3 20.9 0.00 0.00 0.00 90 1013.5
20260505092209 1 216 9.7 14.5 0.00 0.00 0.00 89 1013.6
20260505091441 1 218 9.7 12.9 0.00 0.00 0.00 88 1013.6
20260505090936 1 222 9.7 14.5 0.00 0.00 0.00 87 1013.6
20260505090655 1 231 9.7 14.5 0.00 0.00 0.00 87 1013.6
20260505085923 1 245 11.3 14.5 0.00 0.00 0.00 86 1013.6
20260505085417 1 241 11.3 16.1 0.00 0.00 0.00 87 1013.5
20260505084912 1 248 11.3 16.1 0.00 0.00 0.00 87 1013.5
20260505084406 1 241 9.7 16.1 0.00 0.00 0.00 88 1013.6
20260505083900 1 241 9.7 12.9 0.00 0.00 0.00 89 1013.8
20260505083353 1 257 8.0 11.3 0.00 0.00 0.00 90 1013.8
20260505082847 1 260 6.4 11.3 0.00 0.00 0.00 90 1013.9
20260505082607 1 270 3.2 9.7 0.00 0.00 0.00 90 1013.9
20260505081836 1 288 3.2 11.3 0.00 0.00 0.00 90 1014.0
20260505081330 1 284 4.8 11.3 0.00 0.00 0.00 90 1014.0
20260505080829 1 270 4.8 16.1 0.00 0.00 0.00 90 1013.9
20260505080517 1 293 8.0 14.5 0.00 0.00 0.00 92 1013.9
20260505080405 1 238 6.4 16.1 0.00 0.00 0.00 90 1013.9
20260505075919 1 289 8.0 14.5 0.00 0.00 0.00 91 1014.0
20260505074828 1 258 8.0 12.9 0.00 0.00 0.00 93 1014.0
20260505074554 1 335 8.0 12.9 0.00 0.00 0.00 92 1014.3
20260505073828 1 316 8.0 16.1 0.00 0.00 0.00 92 1014.2
20260505073327 1 330 9.7 16.1 0.00 0.00 0.00 92 1014.2
20260505072828 1 359 8.0 16.1 0.00 0.00 0.00 92 1014.3
20260505072328 1 330 6.4 12.9 0.00 0.00 0.00 92 1014.3
20260505071828 1 320 8.0 9.7 0.00 0.00 0.00 91 1014.3
20260505071327 1 344 8.0 9.7 0.00 0.00 0.00 91 1014.3
20260505071050 1 342 8.0 14.5 0.00 0.00 0.00 90 1014.3
20260505070327 1 354 6.4 14.5 0.00 0.00 0.00 90 1014.3
20260505065828 1 4 3.2 9.7 0.00 0.00 0.00 88 1014.3
20260505065328 1 23 3.2 8.0 0.00 0.00 0.00 86 1014.3
20260505065045 1 257 4.8 6.4 0.00 0.00 0.00 85 1014.3
20260505064812 1 274 4.8 9.7 0.00 0.00 0.00 86 1014.2
20260505063816 1 242 6.4 9.7 0.00 0.00 0.00 87 1014.2
20260505063309 1 258 6.4 11.3 0.00 0.00 0.00 88 1014.4
20260505062806 1 270 4.8 11.3 0.00 0.00 0.00 89 1014.7
20260505062304 1 277 3.2 6.4 0.00 0.00 0.00 89 1014.4
20260505061806 1 308 3.2 0.0 0.00 0.00 0.00 89 1014.6
20260505060204 1 354 12.9 17.7 0.00 0.00 0.00 90 1014.8
20260505055658 1 347 12.9 17.7 0.00 0.00 0.00 89 1014.8
20260505055152 1 359 11.3 17.7 0.00 0.00 0.00 88 1014.8
20260505054402 1 359 9.7 16.1 0.00 0.00 0.00 86 1014.8
20260505053633 2 4 9.7 14.5 0.00 0.00 0.00 84 1014.8
20260505053128 2 322 6.4 12.9 0.00 0.00 0.00 81 1014.8
20260505052847 2 332 6.4 12.9 0.00 0.00 0.00 78 1015.0
20260505052116 3 4 6.4 9.7 0.00 0.00 0.00 77 1014.8
20260505051828 3 359 8.0 11.3 0.00 0.00 0.00 77 1014.8
20260505051104 3 16 8.0 11.3 0.00 0.00 0.00 76 1014.8
20260505050558 3 13 6.4 12.9 0.00 0.00 0.00 76 1015.0
20260505050311 3 26 9.7 16.1 0.00 0.00 0.00 76 1014.8
20260505041458 2 343 11.3 19.3 0.00 0.00 0.00 82 1015.0
20260505040952 2 35 14.5 20.9 0.00 0.00 0.00 84 1014.8
20260505040710 2 23 14.5 20.9 0.00 0.00 0.00 83 1014.7
20260505035940 2 8 17.7 27.4 0.00 0.00 0.00 83 1014.6
20260505035652 2 20 19.3 27.4 0.00 0.00 0.00 83 1014.6
20260505034928 2 36 17.7 27.4 0.00 0.00 0.00 83 1014.6
20260505034422 2 343 17.7 25.7 0.00 0.00 0.00 82 1014.6
20260505033916 2 359 19.3 29.0 0.00 0.00 0.00 82 1014.4
20260505033410 2 32 22.5 33.8 0.00 0.00 0.00 82 1014.4
20260505032904 2 354 22.5 33.8 0.00 0.00 0.00 82 1014.4
20260505032358 2 4 20.9 30.6 0.00 0.00 0.00 82 1014.2
20260505031853 2 359 19.3 29.0 0.00 0.00 0.00 82 1014.2
20260505031346 2 349 19.3 27.4 0.00 0.00 0.00 82 1013.9
20260505030839 2 340 20.9 35.4 0.00 0.00 0.00 82 1013.9
20260505030334 2 4 22.5 35.4 0.00 0.00 0.00 82 1013.6
20260505030051 2 10 24.1 33.8 0.00 0.00 0.00 82 1013.6
20260505025322 2 4 24.1 33.8 0.00 0.00 0.00 82 1013.5
20260505025035 2 20 25.7 37.0 0.00 0.00 0.00 82 1013.8
20260505024310 2 354 25.7 40.2 0.00 0.00 0.00 82 1013.6
20260505023804 2 345 25.7 40.2 0.00 0.00 0.00 81 1013.8
20260505023259 2 9 27.4 41.8 0.00 0.00 0.00 80 1013.8
20260505023014 2 359 25.7 41.8 0.00 0.00 0.00 79 1013.6
20260505022511 2 349 24.1 37.0 0.00 0.00 0.00 79 1013.8
20260505021739 2 354 24.1 35.4 0.00 0.00 0.00 78 1013.8
20260505021234 2 349 25.7 38.6 0.00 0.00 0.00 78 1013.8
20260505020951 2 359 25.7 40.2 0.00 0.00 0.00 78 1013.8
20260505020222 2 4 22.5 40.2 0.00 0.00 0.00 78 1013.8
20260505015716 2 359 20.9 30.6 0.00 0.00 0.00 78 1014.0
20260505015210 2 340 20.9 30.6 0.00 0.00 0.00 78 1014.3
20260505014705 2 308 22.5 33.8 0.00 0.00 0.00 79 1014.0
20260505014158 2 333 22.5 40.2 0.00 0.00 0.00 79 1013.8
20260505013913 2 354 24.1 40.2 0.00 0.00 0.00 79 1013.6
20260505013146 2 337 27.4 45.1 0.00 0.00 0.00 79 1013.6
20260505012640 2 329 30.6 46.7 0.00 0.00 0.00 78 1013.6
20260505012134 3 359 32.2 46.7 0.00 0.00 0.00 77 1013.8
20260505011628 3 354 32.2 46.7 0.00 0.00 0.00 75 1013.5
20260505011122 4 359 32.2 46.7 0.00 0.00 0.00 70 1013.5
20260505010616 5 12 29.0 51.5 0.00 0.00 0.00 67 1013.5
20260505010110 5 18 22.5 51.5 0.00 0.00 0.00 62 1013.2
20260505005603 6 44 20.9 43.5 0.00 0.00 0.00 59 1013.4
20260505005058 6 22 22.5 35.4 0.00 0.00 0.00 59 1013.5
20260505004552 6 4 19.3 35.4 0.00 0.00 0.00 58 1013.6
20260505004046 6 12 17.7 30.6 0.00 0.00 0.00 57 1013.4
20260505003800 6 23 14.5 29.0 0.00 0.00 0.00 57 1013.4
20260505003034 6 14 16.1 25.7 0.00 0.00 0.00 57 1013.4
20260505002528 6 38 16.1 25.7 0.00 0.00 0.00 57 1013.4
20260505002022 6 11 11.3 25.7 0.00 0.00 0.00 57 1013.4
20260505001516 6 35 12.9 29.0 0.00 0.00 0.00 61 1013.5
20260505001010 6 217 16.1 32.2 0.00 0.00 0.00 59 1013.6
20260505000509 7 256 12.9 32.2 0.00 0.00 0.00 58 1013.9
20260505000234 7 272 11.3 25.7 0.00 0.00 0.00 53 1013.8
20260504235509 7 273 9.7 19.3 0.00 0.00 0.00 51 1013.8
20260504235009 7 359 11.3 20.9 0.00 0.00 0.00 50 1013.8
20260504234510 7 8 14.5 25.7 0.00 0.00 0.00 51 1013.5
20260504234009 8 37 16.1 30.6 0.00 0.00 0.00 50 1013.2
20260504233509 8 359 16.1 30.6 0.00 0.00 0.00 50 1013.2
20260504233235 8 11 14.5 27.4 0.00 0.00 0.00 50 1013.1
20260504232509 8 27 17.7 29.0 0.00 0.00 0.00 48 1013.1
20260504232010 8 344 17.7 29.0 0.00 0.00 0.00 45 1013.2
20260504231509 9 18 16.1 27.4 0.00 0.00 0.00 45 1013.1
20260504231008 9 33 14.5 25.7 0.00 0.00 0.00 45 1013.2
20260504230509 10 28 11.3 24.1 0.00 0.00 0.00 43 1013.1
20260504230008 10 30 8.0 24.1 0.00 0.00 0.00 49 1013.1
20260504225510 8 354 9.7 22.5 0.00 0.00 0.00 50 1013.0
20260504225006 8 10 12.9 22.5 0.00 0.00 0.00 49 1013.1
20260504224729 8 334 16.1 30.6 0.00 0.00 0.00 51 1013.2
20260504224007 8 17 17.7 30.6 0.00 0.00 0.00 53 1013.2
20260504223506 7 354 17.7 30.6 0.00 0.00 0.00 52 1013.1
20260504223006 7 20 19.3 30.6 0.00 0.00 0.00 52 1013.1
20260504222507 8 10 19.3 35.4 0.00 0.00 0.00 52 1013.1
20260504222007 8 354 19.3 35.4 0.00 0.00 0.00 51 1013.1
20260504221507 8 21 20.9 35.4 0.00 0.00 0.00 49 1013.1
20260504221007 8 29 24.1 40.2 0.00 0.00 0.00 49 1013.1
20260504220508 8 8 27.4 45.1 0.00 0.00 0.00 48 1013.1
20260504220007 8 8 27.4 45.1 0.00 0.00 0.00 47 1013.2
20260504215722 8 339 25.7 41.8 0.00 0.00 0.00 46 1013.1
20260504215003 8 345 24.1 40.2 0.00 0.00 0.00 45 1013.0
20260504214503 10 39 16.1 40.2 0.00 0.00 0.00 41 1013.2
20260504214002 11 24 6.4 24.1 0.00 0.00 0.00 37 1013.4
20260504213502 12 133 6.4 12.9 0.00 0.00 0.00 34 1013.4
20260504213003 12 37 6.4 12.9 0.00 0.00 0.00 33 1013.4
20260504212731 12 27 4.8 12.9 0.00 0.00 0.00 35 1013.4
20260504212002 12 199 4.8 12.9 0.00 0.00 0.00 36 1013.5
20260504211504 12 58 4.8 11.3 0.00 0.00 0.00 33 1013.5
20260504211221 12 41 8.0 25.7 0.00 0.00 0.00 32 1013.6
20260504210727 12 257 11.3 25.7 0.00 0.00 0.00 32 1013.5
20260504205958 13 9 9.7 19.3 0.00 0.00 0.00 33 1013.5
20260504205458 13 133 6.4 14.5 0.00 0.00 0.00 32 1013.5
20260504205223 13 129 9.7 29.0 0.00 0.00 0.00 34 1013.6
20260504204459 13 154 11.3 29.0 0.00 0.00 0.00 34 1013.8
20260504203959 13 189 11.3 22.5 0.00 0.00 0.00 34 1013.8
20260504203716 12 152 11.3 22.5 0.00 0.00 0.00 35 1013.8
20260504203000 13 264 8.0 17.7 0.00 0.00 0.00 34 1013.9
20260504202721 12 233 6.4 17.7 0.00 0.00 0.00 33 1013.9
20260504201954 12 345 8.0 17.7 0.00 0.00 0.00 36 1013.8
20260504201454 11 309 9.7 25.7 0.00 0.00 0.00 36 1013.9
20260504200955 11 9 11.3 25.7 0.00 0.00 0.00 34 1013.9
20260504200714 11 314 11.3 20.9 0.00 0.00 0.00 35 1013.9
20260504195954 11 235 11.3 20.9 0.00 0.00 0.00 36 1013.9
20260504195454 11 274 11.3 20.9 0.00 0.00 0.00 36 1014.2
20260504194954 10 248 14.5 25.7 0.00 0.00 0.00 38 1014.2
20260504194456 10 241 19.3 33.8 0.00 0.00 0.00 39 1014.2
20260504193948 10 292 19.3 33.8 0.00 0.00 0.00 41 1014.3
20260504193443 10 266 20.9 41.8 0.00 0.00 0.00 39 1014.2
20260504192937 10 241 20.9 41.8 0.00 0.00 0.00 36 1014.3
20260504192431 11 305 12.9 37.0 0.00 0.00 0.00 33 1014.3
20260504191924 11 256 6.4 24.1 0.00 0.00 0.00 31 1014.3
20260504191419 11 237 4.8 9.7 0.00 0.00 0.00 32 1014.4
20260504190913 11 260 4.8 11.3 0.00 0.00 0.00 36 1014.4
20260504190625 11 9 4.8 12.9 0.00 0.00 0.00 29 1014.3
20260504185901 11 354 3.2 12.9 0.00 0.00 0.00 29 1014.4
20260504185355 11 48 4.8 12.9 0.00 0.00 0.00 30 1014.4
20260504184849 11 33 4.8 12.9 0.00 0.00 0.00 30 1014.4
20260504184343 11 35 3.2 14.5 0.00 0.00 0.00 31 1014.6
20260504184057 11 291 3.2 14.5 0.00 0.00 0.00 29 1014.6
20260504183552 11 44 6.4 14.5 0.00 0.00 0.00 31 1014.7
20260504182827 11 350 9.7 19.3 0.00 0.00 0.00 29 1014.8
20260504182319 11 220 11.3 22.5 0.00 0.00 0.00 29 1014.8
20260504181812 11 233 12.9 22.5 0.00 0.00 0.00 33 1014.8
20260504181307 11 218 11.3 20.9 0.00 0.00 0.00 34 1015.0
20260504180801 11 216 12.9 22.5 0.00 0.00 0.00 32 1015.1
20260504180255 11 328 12.9 29.0 0.00 0.00 0.00 31 1015.2
20260504175749 12 230 14.5 33.8 0.00 0.00 0.00 28 1015.1
20260504175242 12 277 12.9 33.8 0.00 0.00 0.00 32 1015.1
20260504174737 11 281 16.1 30.6 0.00 0.00 0.00 32 1015.4
20260504174231 11 335 17.7 32.2 0.00 0.00 0.00 32 1015.2
20260504173725 11 213 17.7 35.4 0.00 0.00 0.00 29 1015.2
20260504173219 11 330 14.5 35.4 0.00 0.00 0.00 33 1015.4
20260504172712 11 264 16.1 30.6 0.00 0.00 0.00 34 1015.4
20260504172207 11 261 14.5 29.0 0.00 0.00 0.00 32 1015.5
20260504171925 12 278 9.7 22.5 0.00 0.00 0.00 33 1015.5
20260504171155 12 274 6.4 20.9 0.00 0.00 0.00 35 1015.6
20260504170647 12 291 6.4 20.9 0.00 0.00 0.00 32 1015.6
20260504170143 12 310 8.0 20.9 0.00 0.00 0.00 32 1015.6